Hourly Weather Goetzenbruck

Today, 29 November, Sunday

Time Temperature Precipitation Wind Pressure Humidity
00:00 0°C° 0 mm 3 mps 737 mmHg 84%
01:00 -2°C° 0 mm 4 mps 737 mmHg 86%
02:00 -2°C° 0 mm 4 mps 737 mmHg 87%
03:00 -2°C° 0 mm 4 mps 737 mmHg 88%
04:00 -3°C° 0 mm 4 mps 737 mmHg 89%
05:00 -3°C° 0 mm 4 mps 738 mmHg 90%
06:00 -4°C° 0 mm 4 mps 738 mmHg 90%
07:00 -3°C° 0 mm 4 mps 738 mmHg 87%
08:00 -3°C° 0 mm 4 mps 738 mmHg 83%
09:00 -3°C° 0 mm 4 mps 739 mmHg 80%
10:00 -2°C° 0 mm 4 mps 739 mmHg 75%
11:00 -1°C° 0 mm 4 mps 739 mmHg 70%
12:00 0°C° 0 mm 4 mps 739 mmHg 65%
13:00 0°C° 0 mm 4 mps 739 mmHg 67%
14:00 0°C° 0 mm 3 mps 738 mmHg 68%
15:00 0°C° 0 mm 3 mps 738 mmHg 70%
16:00 -1°C° 0 mm 3 mps 739 mmHg 73%
17:00 -2°C° 0 mm 3 mps 739 mmHg 77%
18:00 -2°C° 0 mm 3 mps 739 mmHg 80%
19:00 -4°C° 0 mm 3 mps 740 mmHg 82%
20:00 -4°C° 0 mm 3 mps 740 mmHg 83%
21:00 -3°C° 0 mm 2 mps 740 mmHg 84%
22:00 -3°C° 0 mm 2 mps 740 mmHg 86%
23:00 -3°C° 0 mm 2 mps 740 mmHg 87%

Tomorrow, 30 November, Monday

Time Temperature Precipitation Wind Pressure Humidity
00:00 -3°C° 0 mm 2 mps 741 mmHg 88%
01:00 -3°C° 0 mm 2 mps 740 mmHg 89%
02:00 -3°C° 0 mm 2 mps 740 mmHg 90%
03:00 -3°C° 0 mm 2 mps 740 mmHg 91%
04:00 -4°C° 0 mm 2 mps 740 mmHg 92%
05:00 -2°C° 0 mm 1 mps 741 mmHg 92%
06:00 -2°C° 0 mm 1 mps 741 mmHg 93%
07:00 -1°C° 0 mm 1 mps 741 mmHg 88%
08:00 0°C° 0 mm 1 mps 741 mmHg 83%
09:00 +1°C° 0 mm 1 mps 741 mmHg 78%
10:00 +2°C° 0 mm 1 mps 741 mmHg 71%
11:00 +3°C° 0 mm 1 mps 741 mmHg 65%
12:00 +4°C° 0 mm 0 mps 741 mmHg 59%
13:00 +3°C° 0 mm 0 mps 741 mmHg 63%
14:00 +3°C° 0 mm 1 mps 740 mmHg 67%
15:00 +2°C° 0 mm 1 mps 740 mmHg 71%
16:00 +1°C° 0 mm 1 mps 740 mmHg 75%
17:00 0°C° 0 mm 1 mps 740 mmHg 78%
18:00 -1°C° 0 mm 1 mps 740 mmHg 82%
19:00 0°C° 0 mm 1 mps 739 mmHg 81%
20:00 -2°C° 0 mm 2 mps 739 mmHg 80%
21:00 -2°C° 0 mm 2 mps 739 mmHg 79%
22:00 -2°C° 0.1 mm 2 mps 738 mmHg 78%
23:00 -1°C° 0.1 mm 3 mps 738 mmHg 77%

Day after tomorrow, 1 December, Tuesday

Time Temperature Precipitation Wind Pressure Humidity
00:00 -1°C° 0.1 mm 3 mps 737 mmHg 77%
01:00 -1°C° 0.6 mm 3 mps 737 mmHg 82%
02:00 -2°C° 0.6 mm 4 mps 736 mmHg 88%
03:00 -2°C° 0.6 mm 4 mps 735 mmHg 93%
04:00 -2°C° 0.5 mm 4 mps 735 mmHg 94%
05:00 -2°C° 0.5 mm 4 mps 734 mmHg 95%
06:00 0°C° 0.5 mm 3 mps 734 mmHg 95%
07:00 0°C° 0.9 mm 3 mps 733 mmHg 96%
08:00 0°C° 0.9 mm 3 mps 733 mmHg 97%
09:00 +2°C° 0.9 mm 2 mps 733 mmHg 97%
10:00 +2°C° 0.2 mm 2 mps 733 mmHg 97%
11:00 +2°C° 0.2 mm 2 mps 733 mmHg 97%
12:00 +4°C° 0.2 mm 1 mps 733 mmHg 97%
13:00 +3°C° 0 mm 1 mps 732 mmHg 97%
14:00 +2°C° 0 mm 0 mps 732 mmHg 98%
15:00 +2°C° 0 mm 0 mps 732 mmHg 98%
16:00 +2°C° 0 mm 0 mps 733 mmHg 98%
17:00 +3°C° 0 mm 1 mps 733 mmHg 97%
18:00 +3°C° 0 mm 1 mps 733 mmHg 97%
19:00 +3°C° 0 mm 1 mps 733 mmHg 97%
20:00 +3°C° 0 mm 1 mps 734 mmHg 97%
21:00 +3°C° 0 mm 1 mps 734 mmHg 97%
22:00 +3°C° 0 mm 1 mps 734 mmHg 97%
23:00 +2°C° 0 mm 2 mps 734 mmHg 97%

2 December, Wednesday

Time Temperature Precipitation Wind Pressure Humidity
00:00 +2°C° 0 mm 2 mps 734 mmHg 97%
01:00 +2°C° 0 mm 2 mps 734 mmHg 97%
02:00 +2°C° 0 mm 2 mps 734 mmHg 96%
03:00 +2°C° 0 mm 2 mps 734 mmHg 96%
04:00 +2°C° 0 mm 2 mps 734 mmHg 95%
05:00 +1°C° 0 mm 2 mps 734 mmHg 95%
06:00 +1°C° 0 mm 2 mps 734 mmHg 94%
07:00 +1°C° 0 mm 2 mps 734 mmHg 93%
08:00 +1°C° 0 mm 2 mps 734 mmHg 92%
09:00 +1°C° 0 mm 2 mps 734 mmHg 90%
10:00 +2°C° 0 mm 2 mps 734 mmHg 88%
11:00 +2°C° 0 mm 2 mps 734 mmHg 85%
12:00 +3°C° 0 mm 2 mps 733 mmHg 82%
13:00 +3°C° 0 mm 2 mps 733 mmHg 85%
14:00 +2°C° 0 mm 2 mps 733 mmHg 87%
15:00 +1°C° 0 mm 2 mps 732 mmHg 89%
16:00 +2°C° 0 mm 1 mps 733 mmHg 90%
17:00 +1°C° 0 mm 1 mps 733 mmHg 90%
18:00 +1°C° 0 mm 1 mps 733 mmHg 91%
19:00 +1°C° 0 mm 1 mps 733 mmHg 91%
20:00 0°C° 0 mm 1 mps 733 mmHg 91%
21:00 0°C° 0 mm 1 mps 732 mmHg 91%
22:00 0°C° 0 mm 1 mps 732 mmHg 91%
23:00 -1°C° 0 mm 1 mps 732 mmHg 92%

3 December, Thursday

Time Temperature Precipitation Wind Pressure Humidity
00:00 -1°C° 0 mm 1 mps 732 mmHg 92%
01:00 -1°C° 0 mm 1 mps 731 mmHg 92%
02:00 -1°C° 0 mm 1 mps 731 mmHg 92%
03:00 -1°C° 0 mm 1 mps 731 mmHg 92%
04:00 -1°C° 0 mm 1 mps 730 mmHg 92%
05:00 -1°C° 0 mm 1 mps 730 mmHg 91%
06:00 -1°C° 0 mm 1 mps 729 mmHg 91%
07:00 0°C° 0 mm 1 mps 729 mmHg 88%
08:00 0°C° 0 mm 1 mps 729 mmHg 86%
09:00 0°C° 0 mm 1 mps 729 mmHg 83%
10:00 +1°C° 0 mm 1 mps 728 mmHg 80%
11:00 +2°C° 0 mm 1 mps 727 mmHg 76%
12:00 +2°C° 0 mm 1 mps 727 mmHg 73%
13:00 +2°C° 0 mm 1 mps 726 mmHg 76%
14:00 +1°C° 0 mm 1 mps 726 mmHg 78%
15:00 +1°C° 0 mm 1 mps 725 mmHg 81%
16:00 0°C° 0 mm 1 mps 724 mmHg 83%
17:00 -1°C° 0 mm 1 mps 724 mmHg 85%
18:00 -2°C° 0 mm 1 mps 724 mmHg 87%
19:00 -2°C° 0 mm 1 mps 723 mmHg 87%
20:00 -2°C° 0 mm 1 mps 723 mmHg 87%
21:00 -2°C° 0 mm 1 mps 722 mmHg 87%
22:00 -2°C° 0 mm 1 mps 722 mmHg 89%
23:00 -2°C° 0 mm 1 mps 721 mmHg 90%

4 December, Friday

Time Temperature Precipitation Wind Pressure Humidity
00:00 -2°C° 0 mm 1 mps 721 mmHg 92%
01:00 -4°C° 0 mm 2 mps 720 mmHg 92%
02:00 -4°C° 0 mm 2 mps 720 mmHg 93%
03:00 -4°C° 0 mm 2 mps 719 mmHg 93%
04:00 -4°C° 0 mm 2 mps 719 mmHg 93%
05:00 -4°C° 0 mm 2 mps 718 mmHg 92%
06:00 -4°C° 0 mm 2 mps 718 mmHg 92%
07:00 -3°C° 0 mm 2 mps 718 mmHg 89%
08:00 -3°C° 0 mm 2 mps 718 mmHg 86%
09:00 -2°C° 0 mm 2 mps 718 mmHg 83%
10:00 -1°C° 0 mm 2 mps 717 mmHg 80%
11:00 +1°C° 0 mm 2 mps 717 mmHg 76%
12:00 +1°C° 0 mm 3 mps 716 mmHg 73%
13:00 0°C° 0 mm 3 mps 716 mmHg 75%
14:00 +1°C° 0 mm 2 mps 715 mmHg 77%
15:00 -1°C° 0 mm 2 mps 714 mmHg 78%
16:00 -1°C° 0 mm 3 mps 714 mmHg 78%
17:00 -1°C° 0 mm 3 mps 714 mmHg 78%
18:00 -2°C° 0 mm 4 mps 714 mmHg 77%
19:00 -2°C° 0 mm 3 mps 714 mmHg 79%
20:00 -2°C° 0 mm 2 mps 714 mmHg 81%
21:00 0°C° 0 mm 1 mps 714 mmHg 83%
22:00 0°C° 0 mm 1 mps 715 mmHg 84%
23:00 0°C° 0 mm 1 mps 715 mmHg 86%
Show more

We Need Your Consent

Meteoprog and our Service Providers may store and access personal data such as cookies, device identifiers or other similar technologies on your device and process such data to personalise content and ads, as well as provide social media features and to analyse the traffic.

  • Store and/or access information on your device

    Cookies, device identifiers or other information can be stored or accessed on your device for the purposes indicated above.

  • Personalised ads and content, ad and content measurement, audience insights, and products development

    Ads and content can be personalised based on a profile. More data can be added to better personalise ads and content. Ad and content performance can be measured. Insights about the audience who saw the ads and content can be derived. Such data can be used to develop or improve user’s experience, systems and software.

By clicking ‘I Agree’ you will allow the use of indicated cookies, device identifiers, web beacons or other similar technologies. Your settings can be changed in the browser on your device.

For certain purposes, legitimate interests may be relied on, rather than consent. You can read more about this in our Privacy and Cookie Policy.